Tracking 31027 objects as of 19-Jul-2025
HD Live streaming from Space Station
objects crossing your sky now

OBJECT D

Track OBJECT D now!
10-day predictions


NORAD ID: 61241
Int'l Code: 2024-174D
Perigee: 494.8 km
Apogee: 511.9 km
Inclination: 97.4 °
Period: 94.5 minutes
Semi major axis: 6874 km
RCS: Unknown
Launch date: September 24, 2024
Source: People's Republic of China (PRC)
Launch site: Jiuquan Satellite Launch Center, China (JSC)
Your satellite tracking list
TITAN 3C TRANSTAGE DEB
Track 1 satellite(s)




NASA's NSSDC Master Catalog

Two Line Element Set (TLE):
1 61241U 24174D   25199.83790169  .00006201  00000-0  26466-3 0  9997
2 61241  97.4458 207.4252 0012432 333.3670  26.6927 15.23196567 45064
Source of the keplerian elements: AFSPC